Location: Dentlein
(49.1477°N, 10.4231°E)
Time: 03:28:42
(UTC+00:00)

Sich 1 Rocket - Pass Details

Date: 23 May 2024
Orbit: 613 x 649 km, 82.5° (Epoch: 13 June)

Event Time Altitude Azimuth Distance (km) Brightness Sun altitude
Rises 02:31:33 0° 347° (NNW) 2,960 7.5 -7.7°
Reaches altitude 10° 02:33:50 10° 344° (NNW) 2,041 6.6 -7.4°
Maximum altitude 02:38:17 61° 265° (W) 726 3.7 -6.9°
Drops below altitude 10° 02:42:40 10° 185° (S) 2,001 5.7 -6.4°
Sets 02:44:54 0° 182° (S) 2,898 6.6 -6.1°
